RASCOM-QAF 1R

Last updated on Mon Oct 14 2024 00:02:38 GMT+0000 (Coordinated Universal Time)

1 36831U 10037B 24287.34354984 .00000017 00000+0 00000+0 0 9991 2 36831 0.0209 134.7373 0006342 83.1744 291.0859 1.00270933 52167
UTC large
Height (km)
Speed (km/s)
/
Latitude / Longitude
Inclination (degrees)
Orbital Period (minutes)
Azimuth
Elevation
Range (km)
Doppler Factor

Next 0 passes for location: London (51.5072 / 0.1276)

Sorry there are no passes over London.